owner,sensor,date,latitude,longitude,vertical_datum,direction_of_sea_water_velocity,sea_water_speed,upward_sea_water_velocity,qcFlag 
TABS,ioos:station:wmo:42047:1,2003-07-01T00:00:00Z,27.8966,-93.5973,2.0,236.5775337,49.81816938,-99999.0,'11111222,11111222,99999999' 
TABS,ioos:station:wmo:42047:1,2003-07-01T00:30:00Z,27.8966,-93.5973,2.0,239.0129522,51.39470012,-99999.0,'11111222,11111222,99999999' 
TABS,ioos:station:wmo:42047:1,2003-07-01T01:00:00Z,27.8966,-93.5973,2.0,241.3911257,47.15735786,-99999.0,'11111222,11111222,99999999' 
TABS,ioos:station:wmo:42047:1,2003-07-01T01:30:00Z,27.8966,-93.5973,2.0,247.3924738,52.02769359,-99999.0,'11111222,11111222,99999999' 
TABS,ioos:station:wmo:42047:1,2003-07-01T02:00:00Z,27.8966,-93.5973,2.0,251.0310856,54.33028621,-99999.0,'11111222,11111222,99999999' 
TABS,ioos:station:wmo:42047:1,2003-07-01T02:30:00Z,27.8966,-93.5973,2.0,254.022867,55.22307579,-99999.0,'11111222,11111222,99999999' 
TABS,ioos:station:wmo:42047:1,2003-07-01T03:00:00Z,27.8966,-93.5973,2.0,258.823669,59.53906029,-99999.0,'11111222,11111222,99999999' 
TABS,ioos:station:wmo:42047:1,2003-07-01T03:30:00Z,27.8966,-93.5973,2.0,258.1299018,63.83492618,-99999.0,'11111222,11111222,99999999' 
TABS,ioos:station:wmo:42047:1,2003-07-01T04:00:00Z,27.8966,-93.5973,2.0,260.3524714,55.55563878,-99999.0,'11111222,11111222,99999999' 
TABS,ioos:station:wmo:42047:1,2003-07-01T04:30:00Z,27.8966,-93.5973,2.0,268.3496911,63.90649419,-99999.0,'11111222,11111222,99999999' 
TABS,ioos:station:wmo:42047:1,2003-07-01T05:00:00Z,27.8966,-93.5973,2.0,272.7794134,66.20786207,-99999.0,'11111222,11111222,99999999' 
TABS,ioos:station:wmo:42047:1,2003-07-01T05:30:00Z,27.8966,-93.5973,2.0,274.8775929,63.27911899,-99999.0,'11111222,11111222,99999999' 
TABS,ioos:station:wmo:42047:1,2003-07-01T06:00:00Z,27.8966,-93.5973,2.0,277.7256285,59.43946585,-99999.0,'11111222,11111222,99999999' 
TABS,ioos:station:wmo:42047:1,2003-07-01T06:30:00Z,27.8966,-93.5973,2.0,284.4939192,56.21912308,-99999.0,'11111222,11111222,99999999' 
TABS,ioos:station:wmo:42047:1,2003-07-01T07:00:00Z,27.8966,-93.5973,2.0,289.5038638,54.09384161,-99999.0,'11111222,11111222,99999999' 
TABS,ioos:station:wmo:42047:1,2003-07-01T07:30:00Z,27.8966,-93.5973,2.0,292.7060749,50.82928782,-99999.0,'11111222,11111222,99999999' 
TABS,ioos:station:wmo:42047:1,2003-07-01T08:00:00Z,27.8966,-93.5973,2.0,292.1538736,47.44234079,-99999.0,'11111222,11111222,99999999' 
TABS,ioos:station:wmo:42047:1,2003-07-01T08:30:00Z,27.8966,-93.5973,2.0,299.8938316,43.52021369,-99999.0,'11111222,11111222,99999999' 
TABS,ioos:station:wmo:42047:1,2003-07-01T09:00:00Z,27.8966,-93.5973,2.0,305.3853476,41.44591777,-99999.0,'11111222,11111222,99999999' 
TABS,ioos:station:wmo:42047:1,2003-07-01T09:30:00Z,27.8966,-93.5973,2.0,303.7325915,37.67247404,-99999.0,'11111222,11111222,99999999' 
TABS,ioos:station:wmo:42047:1,2003-07-01T10:00:00Z,27.8966,-93.5973,2.0,311.9706029,37.72738263,-99999.0,'11111222,11111222,99999999' 
TABS,ioos:station:wmo:42047:1,2003-07-01T10:30:00Z,27.8966,-93.5973,2.0,319.3642703,35.77726233,-99999.0,'11111222,11111222,99999999' 
TABS,ioos:station:wmo:42047:1,2003-07-01T11:00:00Z,27.8966,-93.5973,2.0,327.7669139,31.96660914,-99999.0,'11111222,11111222,99999999' 
TABS,ioos:station:wmo:42047:1,2003-07-01T11:30:00Z,27.8966,-93.5973,2.0,342.1877711,27.36164103,-99999.0,'11111222,11111222,99999999' 
TABS,ioos:station:wmo:42047:1,2003-07-01T12:00:00Z,27.8966,-93.5973,2.0,357.2644456,23.04626651,-99999.0,'11111222,11111222,99999999' 
TABS,ioos:station:wmo:42047:1,2003-07-01T12:30:00Z,27.8966,-93.5973,2.0,4.340833853,16.6477506,-99999.0,'11111222,11111222,99999999' 
TABS,ioos:station:wmo:42047:1,2003-07-01T13:00:00Z,27.8966,-93.5973,2.0,0.765718538,14.22126928,-99999.0,'11111222,11111222,99999999' 
TABS,ioos:station:wmo:42047:1,2003-07-01T13:30:00Z,27.8966,-93.5973,2.0,17.82364454,12.74154229,-99999.0,'11111222,11111222,99999999' 
TABS,ioos:station:wmo:42047:1,2003-07-01T14:00:00Z,27.8966,-93.5973,2.0,28.01110775,12.05177165,-99999.0,'11111222,11111222,99999999' 
TABS,ioos:station:wmo:42047:1,2003-07-01T14:30:00Z,27.8966,-93.5973,2.0,40.07692239,12.44148303,-99999.0,'11111222,11111222,99999999' 
TABS,ioos:station:wmo:42047:1,2003-07-01T15:00:00Z,27.8966,-93.5973,2.0,48.73024949,14.1296426,-99999.0,'11111222,11111222,99999999' 
TABS,ioos:station:wmo:42047:1,2003-07-01T15:30:00Z,27.8966,-93.5973,2.0,67.49652412,19.70004061,-99999.0,'11111222,11111222,99999999' 
TABS,ioos:station:wmo:42047:1,2003-07-01T16:00:00Z,27.8966,-93.5973,2.0,82.38497868,18.5637173,-99999.0,'11111222,11111222,99999999' 
TABS,ioos:station:wmo:42047:1,2003-07-01T16:30:00Z,27.8966,-93.5973,2.0,92.67899196,29.9527361,-99999.0,'11111222,11111222,99999999' 
TABS,ioos:station:wmo:42047:1,2003-07-01T17:00:00Z,27.8966,-93.5973,2.0,104.506485,31.61800911,-99999.0,'11111222,11111222,99999999' 
TABS,ioos:station:wmo:42047:1,2003-07-01T17:30:00Z,27.8966,-93.5973,2.0,115.8997575,30.8150937,-99999.0,'11111222,11111222,99999999' 
TABS,ioos:station:wmo:42047:1,2003-07-01T18:30:00Z,27.8966,-93.5973,2.0,118.8446735,38.45055136,-99999.0,'11111222,11111222,99999999' 
TABS,ioos:station:wmo:42047:1,2003-07-01T19:30:00Z,27.8966,-93.5973,2.0,134.2817763,49.08413695,-99999.0,'11111222,11111222,99999999' 
TABS,ioos:station:wmo:42047:1,2003-07-01T20:00:00Z,27.8966,-93.5973,2.0,140.8602074,47.92359961,-99999.0,'11111222,11111222,99999999' 
TABS,ioos:station:wmo:42047:1,2003-07-01T20:30:00Z,27.8966,-93.5973,2.0,150.9233967,48.37683847,-99999.0,'11111222,11111222,99999999' 
TABS,ioos:station:wmo:42047:1,2003-07-01T21:00:00Z,27.8966,-93.5973,2.0,157.3441304,47.95000938,-99999.0,'11111222,11111222,99999999' 
TABS,ioos:station:wmo:42047:1,2003-07-01T21:30:00Z,27.8966,-93.5973,2.0,162.4077026,44.93133984,-99999.0,'11111222,11111222,99999999' 
TABS,ioos:station:wmo:42047:1,2003-07-01T22:00:00Z,27.8966,-93.5973,2.0,160.7905394,38.84264152,-99999.0,'11111222,11111222,99999999' 
TABS,ioos:station:wmo:42047:1,2003-07-01T22:30:00Z,27.8966,-93.5973,2.0,160.9150556,33.4590496,-99999.0,'11111222,11111222,99999999' 
TABS,ioos:station:wmo:42047:1,2003-07-01T23:00:00Z,27.8966,-93.5973,2.0,160.8703659,37.04564212,-99999.0,'11111222,11111222,99999999' 
TABS,ioos:station:wmo:42047:1,2003-07-01T23:30:00Z,27.8966,-93.5973,2.0,168.9073292,35.65613131,-99999.0,'11111222,11111222,99999999' 
TABS,ioos:station:wmo:42047:1,2003-07-02T00:00:00Z,27.8966,-93.5973,2.0,176.0696232,34.14028705,-99999.0,'11111222,11111222,99999999' 
TABS,ioos:station:wmo:42047:1,2003-07-02T00:30:00Z,27.8966,-93.5973,2.0,179.9832445,34.63000144,-99999.0,'11111222,11111222,99999999' 
TABS,ioos:station:wmo:42047:1,2003-07-02T01:00:00Z,27.8966,-93.5973,2.0,185.3493624,31.4268834,-99999.0,'11111222,11111222,99999999' 
TABS,ioos:station:wmo:42047:1,2003-07-02T01:30:00Z,27.8966,-93.5973,2.0,188.2976344,32.84383656,-99999.0,'11111222,11111222,99999999' 
TABS,ioos:station:wmo:42047:1,2003-07-02T02:00:00Z,27.8966,-93.5973,2.0,196.6508561,30.78071637,-99999.0,'11111222,11111222,99999999' 
TABS,ioos:station:wmo:42047:1,2003-07-02T02:30:00Z,27.8966,-93.5973,2.0,219.6666542,24.34500359,-99999.0,'11111222,11111222,99999999' 
TABS,ioos:station:wmo:42047:1,2003-07-02T03:00:00Z,27.8966,-93.5973,2.0,245.0466843,20.02968048,-99999.0,'11111222,11111222,99999999' 
TABS,ioos:station:wmo:42047:1,2003-07-02T03:30:00Z,27.8966,-93.5973,2.0,267.8930495,24.7567304,-99999.0,'11111222,11111222,99999999' 
TABS,ioos:station:wmo:42047:1,2003-07-02T04:00:00Z,27.8966,-93.5973,2.0,287.9589137,31.94643329,-99999.0,'11111222,11111222,99999999' 
TABS,ioos:station:wmo:42047:1,2003-07-02T04:30:00Z,27.8966,-93.5973,2.0,290.7013135,34.71100402,-99999.0,'11111222,11111222,99999999' 
TABS,ioos:station:wmo:42047:1,2003-07-02T05:00:00Z,27.8966,-93.5973,2.0,278.7478056,35.04766041,-99999.0,'11111222,11111222,99999999' 
TABS,ioos:station:wmo:42047:1,2003-07-02T05:30:00Z,27.8966,-93.5973,2.0,273.6438499,41.54396707,-99999.0,'11111222,11111222,99999999' 
TABS,ioos:station:wmo:42047:1,2003-07-02T06:00:00Z,27.8966,-93.5973,2.0,283.1329006,49.20689789,-99999.0,'11111222,11111222,99999999' 
TABS,ioos:station:wmo:42047:1,2003-07-02T06:30:00Z,27.8966,-93.5973,2.0,289.8936618,55.04462281,-99999.0,'11111222,11111222,99999999' 
TABS,ioos:station:wmo:42047:1,2003-07-02T07:00:00Z,27.8966,-93.5973,2.0,291.7332815,54.36420606,-99999.0,'11111222,11111222,99999999' 
TABS,ioos:station:wmo:42047:1,2003-07-02T07:30:00Z,27.8966,-93.5973,2.0,295.8815844,48.33828814,-99999.0,'11111222,11111222,99999999' 
TABS,ioos:station:wmo:42047:1,2003-07-02T08:00:00Z,27.8966,-93.5973,2.0,298.0714473,48.3247059,-99999.0,'11111222,11111222,99999999' 
TABS,ioos:station:wmo:42047:1,2003-07-02T08:30:00Z,27.8966,-93.5973,2.0,306.5356843,47.26880578,-99999.0,'11111222,11111222,99999999' 
TABS,ioos:station:wmo:42047:1,2003-07-02T09:00:00Z,27.8966,-93.5973,2.0,314.5053915,45.02316848,-99999.0,'11111222,11111222,99999999' 
TABS,ioos:station:wmo:42047:1,2003-07-02T09:30:00Z,27.8966,-93.5973,2.0,322.4930233,43.86871436,-99999.0,'11111222,11111222,99999999' 
TABS,ioos:station:wmo:42047:1,2003-07-02T10:00:00Z,27.8966,-93.5973,2.0,330.9604874,41.32530097,-99999.0,'11111222,11111222,99999999' 
TABS,ioos:station:wmo:42047:1,2003-07-02T10:30:00Z,27.8966,-93.5973,2.0,338.8865083,42.0853086,-99999.0,'11111222,11111222,99999999' 
TABS,ioos:station:wmo:42047:1,2003-07-02T11:00:00Z,27.8966,-93.5973,2.0,344.1212729,36.73161309,-99999.0,'11111222,11111222,99999999' 
TABS,ioos:station:wmo:42047:1,2003-07-02T11:30:00Z,27.8966,-93.5973,2.0,349.8038882,34.0070772,-99999.0,'11111222,11111222,99999999' 
TABS,ioos:station:wmo:42047:1,2003-07-02T12:00:00Z,27.8966,-93.5973,2.0,356.7141162,25.1213057,-99999.0,'11111222,11111222,99999999' 
TABS,ioos:station:wmo:42047:1,2003-07-02T12:30:00Z,27.8966,-93.5973,2.0,10.56730365,23.44765447,-99999.0,'11111222,11111222,99999999' 
TABS,ioos:station:wmo:42047:1,2003-07-02T15:30:00Z,27.8966,-93.5973,2.0,62.08997925,23.24362278,-99999.0,'11111222,11111222,99999999' 
TABS,ioos:station:wmo:42047:1,2003-07-02T16:00:00Z,27.8966,-93.5973,2.0,70.00370009,25.88020286,-99999.0,'11111222,11111222,99999999' 
TABS,ioos:station:wmo:42047:1,2003-07-02T16:30:00Z,27.8966,-93.5973,2.0,76.75951105,16.94032172,-99999.0,'11111222,11111222,99999999' 
TABS,ioos:station:wmo:42047:1,2003-07-02T17:00:00Z,27.8966,-93.5973,2.0,85.6940337,20.37751948,-99999.0,'11111222,11111222,99999999' 
TABS,ioos:station:wmo:42047:1,2003-07-02T17:30:00Z,27.8966,-93.5973,2.0,116.0118069,16.21224846,-99999.0,'11111222,11111222,99999999' 
TABS,ioos:station:wmo:42047:1,2003-07-02T18:00:00Z,27.8966,-93.5973,2.0,108.9419336,32.16162309,-99999.0,'11111222,11111222,99999999' 
TABS,ioos:station:wmo:42047:1,2003-07-02T18:30:00Z,27.8966,-93.5973,2.0,110.8276338,39.99340946,-99999.0,'11111222,11111222,99999999' 
TABS,ioos:station:wmo:42047:1,2003-07-02T19:00:00Z,27.8966,-93.5973,2.0,114.3006438,39.39002539,-99999.0,'11111222,11111222,99999999' 
TABS,ioos:station:wmo:42047:1,2003-07-02T19:30:00Z,27.8966,-93.5973,2.0,119.1711119,39.14484385,-99999.0,'11111222,11111222,99999999' 
TABS,ioos:station:wmo:42047:1,2003-07-02T20:00:00Z,27.8966,-93.5973,2.0,119.1107938,39.56826253,-99999.0,'11111222,11111222,99999999' 
TABS,ioos:station:wmo:42047:1,2003-07-02T20:30:00Z,27.8966,-93.5973,2.0,123.0921709,39.34147938,-99999.0,'11111222,11111222,99999999' 
TABS,ioos:station:wmo:42047:1,2003-07-02T21:00:00Z,27.8966,-93.5973,2.0,125.8665663,38.26586599,-99999.0,'11111222,11111222,99999999' 
TABS,ioos:station:wmo:42047:1,2003-07-02T21:30:00Z,27.8966,-93.5973,2.0,125.8996037,38.26948654,-99999.0,'11111222,11111222,99999999' 
TABS,ioos:station:wmo:42047:1,2003-07-02T22:00:00Z,27.8966,-93.5973,2.0,124.2530928,38.9446081,-99999.0,'11111222,11111222,99999999' 
TABS,ioos:station:wmo:42047:1,2003-07-02T22:30:00Z,27.8966,-93.5973,2.0,140.7155714,39.54710735,-99999.0,'11111222,11111222,99999999' 
TABS,ioos:station:wmo:42047:1,2003-07-02T23:00:00Z,27.8966,-93.5973,2.0,148.670021,37.0410205,-99999.0,'11111222,11111222,99999999' 
TABS,ioos:station:wmo:42047:1,2003-07-02T23:30:00Z,27.8966,-93.5973,2.0,154.4340028,38.21126797,-99999.0,'11111222,11111222,99999999' 
TABS,ioos:station:wmo:42047:1,2003-07-03T00:00:00Z,27.8966,-93.5973,2.0,159.4197913,39.11632524,-99999.0,'11111222,11111222,99999999' 
TABS,ioos:station:wmo:42047:1,2003-07-03T00:30:00Z,27.8966,-93.5973,2.0,160.1650051,35.98481068,-99999.0,'11111222,11111222,99999999' 
TABS,ioos:station:wmo:42047:1,2003-07-03T01:00:00Z,27.8966,-93.5973,2.0,167.6552973,35.40865713,-99999.0,'11111222,11111222,99999999' 
TABS,ioos:station:wmo:42047:1,2003-07-03T01:30:00Z,27.8966,-93.5973,2.0,172.1897636,33.92468423,-99999.0,'11111222,11111222,99999999' 
TABS,ioos:station:wmo:42047:1,2003-07-03T02:00:00Z,27.8966,-93.5973,2.0,170.49183,26.81841531,-99999.0,'11111222,11111222,99999999' 
TABS,ioos:station:wmo:42047:1,2003-07-03T02:30:00Z,27.8966,-93.5973,2.0,180.0747184,22.94001962,-99999.0,'11111222,11111222,99999999' 
TABS,ioos:station:wmo:42047:1,2003-07-03T03:00:00Z,27.8966,-93.5973,2.0,213.0101069,14.26234553,-99999.0,'11111222,11111222,99999999' 
TABS,ioos:station:wmo:42047:1,2003-07-03T03:30:00Z,27.8966,-93.5973,2.0,236.9515315,6.931413997,-99999.0,'11133222,11111222,99999999' 
TABS,ioos:station:wmo:42047:1,2003-07-03T04:00:00Z,27.8966,-93.5973,2.0,254.8365055,11.46930251,-99999.0,'11111222,11111222,99999999' 
TABS,ioos:station:wmo:42047:1,2003-07-03T04:30:00Z,27.8966,-93.5973,2.0,274.0568597,13.99505984,-99999.0,'11111222,11111222,99999999' 
TABS,ioos:station:wmo:42047:1,2003-07-03T05:00:00Z,27.8966,-93.5973,2.0,271.3200059,14.76391547,-99999.0,'11111222,11111222,99999999' 
TABS,ioos:station:wmo:42047:1,2003-07-03T05:30:00Z,27.8966,-93.5973,2.0,280.46991,18.05050969,-99999.0,'11111222,11111222,99999999' 
TABS,ioos:station:wmo:42047:1,2003-07-03T06:00:00Z,27.8966,-93.5973,2.0,290.1149576,18.98814894,-99999.0,'11111222,11111222,99999999' 
TABS,ioos:station:wmo:42047:1,2003-07-03T06:30:00Z,27.8966,-93.5973,2.0,300.2479468,18.66050374,-99999.0,'11111222,11111222,99999999' 
TABS,ioos:station:wmo:42047:1,2003-07-03T07:00:00Z,27.8966,-93.5973,2.0,301.1538849,21.74613989,-99999.0,'11111222,11111222,99999999' 
TABS,ioos:station:wmo:42047:1,2003-07-03T07:30:00Z,27.8966,-93.5973,2.0,315.4270188,20.88851359,-99999.0,'11111222,11111222,99999999' 
TABS,ioos:station:wmo:42047:1,2003-07-03T08:00:00Z,27.8966,-93.5973,2.0,320.438756,20.44255366,-99999.0,'11111222,11111222,99999999' 
TABS,ioos:station:wmo:42047:1,2003-07-03T08:30:00Z,27.8966,-93.5973,2.0,319.2971032,23.78320836,-99999.0,'11111222,11111222,99999999' 
TABS,ioos:station:wmo:42047:1,2003-07-03T09:00:00Z,27.8966,-93.5973,2.0,322.3652757,23.66410996,-99999.0,'11111222,11111222,99999999' 
TABS,ioos:station:wmo:42047:1,2003-07-03T09:30:00Z,27.8966,-93.5973,2.0,329.1247104,24.5140368,-99999.0,'11111222,11111222,99999999' 
TABS,ioos:station:wmo:42047:1,2003-07-03T10:00:00Z,27.8966,-93.5973,2.0,339.2342569,23.63544795,-99999.0,'11111222,11111222,99999999' 
TABS,ioos:station:wmo:42047:1,2003-07-03T10:30:00Z,27.8966,-93.5973,2.0,339.659225,25.57484115,-99999.0,'11111222,11111222,99999999' 
TABS,ioos:station:wmo:42047:1,2003-07-03T11:00:00Z,27.8966,-93.5973,2.0,344.0714921,23.64799569,-99999.0,'11111222,11111222,99999999' 
TABS,ioos:station:wmo:42047:1,2003-07-03T11:30:00Z,27.8966,-93.5973,2.0,348.9666285,28.05866176,-99999.0,'11111222,11111222,99999999' 
TABS,ioos:station:wmo:42047:1,2003-07-03T12:00:00Z,27.8966,-93.5973,2.0,355.7121405,26.61450169,-99999.0,'11111222,11111222,99999999' 
TABS,ioos:station:wmo:42047:1,2003-07-03T12:30:00Z,27.8966,-93.5973,2.0,0.19007015,27.16014912,-99999.0,'11111222,11111222,99999999' 
TABS,ioos:station:wmo:42047:1,2003-07-03T13:00:00Z,27.8966,-93.5973,2.0,6.461899848,26.03539514,-99999.0,'11111222,11111222,99999999' 
TABS,ioos:station:wmo:42047:1,2003-07-03T13:30:00Z,27.8966,-93.5973,2.0,15.81066415,22.16868287,-99999.0,'11111222,11111222,99999999' 
TABS,ioos:station:wmo:42047:1,2003-07-03T14:00:00Z,27.8966,-93.5973,2.0,28.57582757,24.98331643,-99999.0,'11111222,11111222,99999999' 
TABS,ioos:station:wmo:42047:1,2003-07-03T14:30:00Z,27.8966,-93.5973,2.0,35.11213954,25.81815059,-99999.0,'11111222,11111222,99999999' 
TABS,ioos:station:wmo:42047:1,2003-07-03T15:00:00Z,27.8966,-93.5973,2.0,39.87893645,28.04266036,-99999.0,'11111222,11111222,99999999' 
TABS,ioos:station:wmo:42047:1,2003-07-03T15:30:00Z,27.8966,-93.5973,2.0,43.05163807,28.49166369,-99999.0,'11111222,11111222,99999999' 
TABS,ioos:station:wmo:42047:1,2003-07-03T16:00:00Z,27.8966,-93.5973,2.0,37.90010052,28.14654863,-99999.0,'11111222,11111222,99999999' 
TABS,ioos:station:wmo:42047:1,2003-07-03T16:30:00Z,27.8966,-93.5973,2.0,56.86378496,29.27012299,-99999.0,'11111222,11111222,99999999' 
TABS,ioos:station:wmo:42047:1,2003-07-03T17:30:00Z,27.8966,-93.5973,2.0,66.84021441,27.18043782,-99999.0,'11111222,11111222,99999999' 
TABS,ioos:station:wmo:42047:1,2003-07-03T18:00:00Z,27.8966,-93.5973,2.0,69.54910884,26.15874041,-99999.0,'11111222,11111222,99999999' 
TABS,ioos:station:wmo:42047:1,2003-07-03T18:30:00Z,27.8966,-93.5973,2.0,73.74150645,27.39560001,-99999.0,'11111222,11111222,99999999' 
TABS,ioos:station:wmo:42047:1,2003-07-03T19:00:00Z,27.8966,-93.5973,2.0,77.52387091,23.60746704,-99999.0,'11111222,11111222,99999999' 
TABS,ioos:station:wmo:42047:1,2003-07-03T19:30:00Z,27.8966,-93.5973,2.0,79.13010847,19.40822506,-99999.0,'11111222,11111222,99999999' 
TABS,ioos:station:wmo:42047:1,2003-07-03T20:00:00Z,27.8966,-93.5973,2.0,100.8696023,16.33303401,-99999.0,'11111222,11111222,99999999' 
TABS,ioos:station:wmo:42047:1,2003-07-03T20:30:00Z,27.8966,-93.5973,2.0,114.4096137,26.27897449,-99999.0,'11111222,11111222,99999999' 
TABS,ioos:station:wmo:42047:1,2003-07-03T21:00:00Z,27.8966,-93.5973,2.0,125.5448141,27.67740053,-99999.0,'11111222,11111222,99999999' 
TABS,ioos:station:wmo:42047:1,2003-07-03T21:30:00Z,27.8966,-93.5973,2.0,130.5250087,27.73241425,-99999.0,'11111222,11111222,99999999' 
TABS,ioos:station:wmo:42047:1,2003-07-03T22:00:00Z,27.8966,-93.5973,2.0,133.0983474,26.63723897,-99999.0,'11111222,11111222,99999999' 
TABS,ioos:station:wmo:42047:1,2003-07-03T22:30:00Z,27.8966,-93.5973,2.0,135.7166781,24.305162,-99999.0,'11111222,11111222,99999999' 
TABS,ioos:station:wmo:42047:1,2003-07-03T23:00:00Z,27.8966,-93.5973,2.0,140.829648,24.01735414,-99999.0,'11111222,11111222,99999999' 
TABS,ioos:station:wmo:42047:1,2003-07-03T23:30:00Z,27.8966,-93.5973,2.0,146.8220987,24.81550523,-99999.0,'11111222,11111222,99999999' 
TABS,ioos:station:wmo:42047:1,2003-07-04T00:00:00Z,27.8966,-93.5973,2.0,153.6335129,19.34210433,-99999.0,'11111222,11111222,99999999' 
TABS,ioos:station:wmo:42047:1,2003-07-04T00:30:00Z,27.8966,-93.5973,2.0,154.6648401,17.08302374,-99999.0,'11111222,11111222,99999999' 
TABS,ioos:station:wmo:42047:1,2003-07-04T01:00:00Z,27.8966,-93.5973,2.0,166.7204561,21.11456843,-99999.0,'11111222,11111222,99999999' 
TABS,ioos:station:wmo:42047:1,2003-07-04T01:30:00Z,27.8966,-93.5973,2.0,162.5201241,22.57231269,-99999.0,'11111222,11111222,99999999' 
TABS,ioos:station:wmo:42047:1,2003-07-04T02:00:00Z,27.8966,-93.5973,2.0,173.6867518,25.64551618,-99999.0,'11111222,11111222,99999999' 
TABS,ioos:station:wmo:42047:1,2003-07-04T02:30:00Z,27.8966,-93.5973,2.0,183.8558368,17.24904925,-99999.0,'11111222,11111222,99999999' 
TABS,ioos:station:wmo:42047:1,2003-07-04T03:00:00Z,27.8966,-93.5973,2.0,193.9191182,17.83368162,-99999.0,'11111222,11111222,99999999' 
TABS,ioos:station:wmo:42047:1,2003-07-04T03:30:00Z,27.8966,-93.5973,2.0,208.3908759,14.59551986,-99999.0,'11111222,11111222,99999999' 
TABS,ioos:station:wmo:42047:1,2003-07-04T04:00:00Z,27.8966,-93.5973,2.0,260.6247289,11.84824882,-99999.0,'11111222,11111222,99999999' 
TABS,ioos:station:wmo:42047:1,2003-07-04T04:30:00Z,27.8966,-93.5973,2.0,302.2960648,17.78063272,-99999.0,'11111222,11111222,99999999' 
TABS,ioos:station:wmo:42047:1,2003-07-04T05:00:00Z,27.8966,-93.5973,2.0,327.7246416,17.30359789,-99999.0,'11111222,11111222,99999999' 
TABS,ioos:station:wmo:42047:1,2003-07-04T05:30:00Z,27.8966,-93.5973,2.0,319.1736049,22.05657498,-99999.0,'11111222,11111222,99999999' 
TABS,ioos:station:wmo:42047:1,2003-07-04T06:00:00Z,27.8966,-93.5973,2.0,324.5439554,24.56547577,-99999.0,'11111222,11111222,99999999' 
TABS,ioos:station:wmo:42047:1,2003-07-04T06:30:00Z,27.8966,-93.5973,2.0,328.3750504,25.40234832,-99999.0,'11111222,11111222,99999999' 
TABS,ioos:station:wmo:42047:1,2003-07-04T07:00:00Z,27.8966,-93.5973,2.0,330.8315642,31.69991956,-99999.0,'11111222,11111222,99999999' 
TABS,ioos:station:wmo:42047:1,2003-07-04T07:30:00Z,27.8966,-93.5973,2.0,334.2533379,32.57388678,-99999.0,'11111222,11111222,99999999' 
TABS,ioos:station:wmo:42047:1,2003-07-04T08:00:00Z,27.8966,-93.5973,2.0,333.2445544,37.62876028,-99999.0,'11111222,11111222,99999999' 
TABS,ioos:station:wmo:42047:1,2003-07-04T08:30:00Z,27.8966,-93.5973,2.0,336.4770564,39.86264668,-99999.0,'11111222,11111222,99999999' 
TABS,ioos:station:wmo:42047:1,2003-07-04T09:00:00Z,27.8966,-93.5973,2.0,337.944182,38.85341941,-99999.0,'11111222,11111222,99999999' 
TABS,ioos:station:wmo:42047:1,2003-07-04T09:30:00Z,27.8966,-93.5973,2.0,341.4112846,37.64388928,-99999.0,'11111222,11111222,99999999' 
TABS,ioos:station:wmo:42047:1,2003-07-04T10:00:00Z,27.8966,-93.5973,2.0,339.9641891,33.27382755,-99999.0,'11111222,11111222,99999999' 
TABS,ioos:station:wmo:42047:1,2003-07-04T10:30:00Z,27.8966,-93.5973,2.0,344.5496911,30.85508062,-99999.0,'11111222,11111222,99999999' 
TABS,ioos:station:wmo:42047:1,2003-07-04T11:00:00Z,27.8966,-93.5973,2.0,355.5936999,28.11310193,-99999.0,'11111222,11111222,99999999' 
TABS,ioos:station:wmo:42047:1,2003-07-04T11:30:00Z,27.8966,-93.5973,2.0,352.2796827,45.10890821,-99999.0,'11111222,11111222,99999999' 
TABS,ioos:station:wmo:42047:1,2003-07-04T12:00:00Z,27.8966,-93.5973,2.0,0.601081124,54.35298888,-99999.0,'11111222,11111222,99999999' 
TABS,ioos:station:wmo:42047:1,2003-07-04T12:30:00Z,27.8966,-93.5973,2.0,1.797048685,54.21665888,-99999.0,'11111222,11111222,99999999' 
TABS,ioos:station:wmo:42047:1,2003-07-04T13:00:00Z,27.8966,-93.5973,2.0,11.52921922,55.38752387,-99999.0,'11111222,11111222,99999999' 
TABS,ioos:station:wmo:42047:1,2003-07-04T13:30:00Z,27.8966,-93.5973,2.0,18.74117307,58.01597366,-99999.0,'11111222,11111222,99999999' 
TABS,ioos:station:wmo:42047:1,2003-07-04T14:00:00Z,27.8966,-93.5973,2.0,33.73494588,63.92367011,-99999.0,'11111222,11111222,99999999' 
TABS,ioos:station:wmo:42047:1,2003-07-04T14:30:00Z,27.8966,-93.5973,2.0,38.51765281,60.37696249,-99999.0,'11111222,11111222,99999999' 
TABS,ioos:station:wmo:42047:1,2003-07-04T15:00:00Z,27.8966,-93.5973,2.0,42.45574005,62.27972463,-99999.0,'11111222,11111222,99999999' 
TABS,ioos:station:wmo:42047:1,2003-07-04T15:30:00Z,27.8966,-93.5973,2.0,43.86261553,62.69029909,-99999.0,'11111222,11111222,99999999' 
TABS,ioos:station:wmo:42047:1,2003-07-04T16:00:00Z,27.8966,-93.5973,2.0,45.74898611,67.62639795,-99999.0,'11111222,11111222,99999999' 
TABS,ioos:station:wmo:42047:1,2003-07-04T16:30:00Z,27.8966,-93.5973,2.0,57.77613781,65.58148595,-99999.0,'11111222,11111222,99999999' 
TABS,ioos:station:wmo:42047:1,2003-07-04T17:00:00Z,27.8966,-93.5973,2.0,59.03776813,67.66133682,-99999.0,'11111222,11111222,99999999' 
TABS,ioos:station:wmo:42047:1,2003-07-04T17:30:00Z,27.8966,-93.5973,2.0,68.1969734,63.78263478,-99999.0,'11111222,11111222,99999999' 
TABS,ioos:station:wmo:42047:1,2003-07-04T18:00:00Z,27.8966,-93.5973,2.0,75.48755774,64.48759958,-99999.0,'11111222,11111222,99999999' 
TABS,ioos:station:wmo:42047:1,2003-07-04T18:30:00Z,27.8966,-93.5973,2.0,80.7892409,62.16150014,-99999.0,'11111222,11111222,99999999' 
TABS,ioos:station:wmo:42047:1,2003-07-04T19:00:00Z,27.8966,-93.5973,2.0,86.90019203,56.40252565,-99999.0,'11111222,11111222,99999999' 
TABS,ioos:station:wmo:42047:1,2003-07-04T19:30:00Z,27.8966,-93.5973,2.0,87.98151203,53.94347134,-99999.0,'11111222,11111222,99999999' 
TABS,ioos:station:wmo:42047:1,2003-07-04T20:00:00Z,27.8966,-93.5973,2.0,92.76910825,50.29873259,-99999.0,'11111222,11111222,99999999' 